Regional Weather Roundup
Issued by NWS

Home | Current Version | Previous Version | Graphics & Text | Print | Product List | Glossary On
Versions: 1 2 3 4 5 6 7 8 9 10 11 12 13 14 15 16 17 18 19 20 21 22 23 24 25 26 27 28 29 30 31 32 33 34 35 36 37 38 39 40 41 42 43 44 45 46 47 48 49 50
000
ASUS43 KFSD 252110
RWRSD

WEATHER ROUNDUP FOR SOUTH DAKOTA
NATIONAL WEATHER SERVICE SIOUX FALLS SD
400 PM CDT SAT MAR 25 2017

NOTE: "FAIR" INDICATES FEW OR NO CLOUDS BELOW 12,000 FEET WITH NO
SIGNIFICANT WEATHER AND/OR OBSTRUCTIONS TO VISIBILITY.


SDZ001>005-009-010-012>017-252200-
NORTHWEST AND NORTH CENTRAL SOUTH DAKOTA

CITY           SKY/WX    TMP DP  RH WIND       PRES   REMARKS
BUFFALO          N/A     63  32  31 N18       29.80F
FAITH            N/A     60  30  32 MISG      29.86F
MOBRIDGE       MOSUNNY   53  33  46 SE12      29.92F
$$

SDZ012>016-024>037-041>051-057-063-072>074-252200-
SOUTHWEST AND SOUTH CENTRAL SOUTH DAKOTA

CITY           SKY/WX    TMP DP  RH WIND       PRES   REMARKS
RAPID CTY ARPT SUNNY     66  31  27 N10       29.83F
PIERRE         SUNNY     55  31  39 SE16      29.92F
CUSTER         CLOUDY    56  28  34 SE9       29.88F
ELLSWORTH AFB  SUNNY     64  31  28 VRB6      29.83F
PHILIP         CLOUDY    67  21  17 S17       29.85F
PINE RIDGE     SUNNY     69  31  24 S8G20     29.83F
SPEARFISH      FAIR      59  36  41 NE8       29.86F
WINNER         FAIR      61  31  32 E10G17    29.93F
$$

SDZ004>011-016>023-039-040-252200-
NORTHEAST SOUTH DAKOTA

CITY           SKY/WX    TMP DP  RH WIND       PRES   REMARKS
ABERDEEN       CLOUDY    45  31  58 E7        30.02F
WATERTOWN      CLOUDY    37  33  85 E8        30.04F
BROOKINGS      CLOUDY    40  35  83 NE9       30.01F
SISSETON         N/A     37  33  85 S13       30.07F
$$

SDZ017-020-022-023-036>040-048>070-252200-
SOUTHEAST SOUTH DAKOTA

CITY           SKY/WX    TMP DP  RH WIND       PRES   REMARKS
SIOUX FALLS    CLOUDY    44  38  79 E15       29.99F
HURON          CLOUDY    47  35  63 E12       30.01F
CHAMBERLAIN    SUNNY     53  36  53 E10       29.97F
MITCHELL       CLOUDY    46  36  68 VRB6      30.02F
YANKTON        CLOUDY    43  37  81 NE9       29.99F
$$

ABBREVIATIONS USED IN REMARKS
   TC - TEMPERATURE IN CELSIUS
  WCI - WIND CHILL INDEX
   HX - HEAT INDEX
  VSB - VISIBILITY




USA.gov is the U.S. government's official web portal to all federal, state and local government web resources and services.